Wind_Speed
28 27 27 28 29 28 28 27 28 29 30 31 32 34 36 39 40 41 40 39 40 41 42 44 47 49 50 52 53 52 50 49 49 49 49 50 50 52 53 52 53 53 53 54 54 55 57 59 58 56 54 54 52 49 47 45 44 44 44 44 46 46 45 45 43 39 36 34 32 29 26 27 28 28 28 27 25 25 26 27 27 27 26 26 26
28 28 28 30 30 30 29 28 27 28 29 30 31 32 34 36 38 40 41 40 40 41 42 43 46 48 51 52 53 54 53 51 50 50 50 51 51 52 52 52 52 52 52 53 53 52 55 59 60 59 59 59 57 54 51 49 48 47 45 45 46 46 47 47 45 43 41 37 36 34 30 29 29 29 29 29 27 27 28 28 28 28 27 27 26
29 30 31 32 32 32 31 30 28 27 28 30 31 31 32 33 35 37 40 41 41 42 43 44 45 47 50 52 53 54 54 52 51 50 51 51 52 53 53 53 52 52 52 53 54 52 54 57 59 59 58 58 58 58 55 53 52 51 49 46 45 46 47 47 47 47 45 41 38 38 36 32 30 29 30 30 30 29 29 29 29 29 28 28 27
31 33 34 33 33 32 32 31 29 27 27 29 31 30 30 30 31 34 36 39 41 42 43 44 45 46 49 51 53 53 54 53 52 52 51 51 52 54 55 55 54 53 52 53 54 54 53 54 54 54 53 53 54 56 56 55 54 53 52 50 47 46 46 47 47 48 48 45 41 40 40 37 33 31 30 31 32 31 31 31 31 30 29 29 28
32 35 35 34 33 32 31 31 30 28 27 28 29 30 30 29 29 30 33 36 39 42 43 44 45 46 47 50 52 52 53 53 52 52 52 51 51 53 55 56 57 57 55 55 56 55 54 53 52 51 51 50 50 52 54 55 55 55 54 52 50 48 46 47 47 48 50 48 43 42 42 41 38 35 32 32 33 32 33 33 32 32 31 30 29
34 36 35 33 31 30 30 30 30 29 29 28 28 29 30 30 29 29 30 33 36 39 41 43 45 46 46 47 50 52 51 52 52 52 52 50 50 52 53 54 56 57 57 56 57 57 57 55 53 52 52 51 49 49 50 52 54 54 54 54 51 49 47 47 47 47 49 49 47 44 43 43 42 39 35 34 34 33 34 35 34 33 32 31 30
35 36 35 32 30 29 29 29 29 30 30 30 28 28 28 29 29 29 29 30 32 34 37 40 42 45 44 42 45 49 49 49 51 52 50 49 48 50 51 52 54 55 56 56 56 57 58 58 57 55 54 53 51 50 50 51 51 53 54 54 52 50 48 48 47 47 48 50 49 47 44 44 45 43 40 37 36 35 36 37 35 34 33 32 31
36 35 33 30 29 28 28 28 29 30 30 31 30 29 27 28 29 30 29 29 30 30 32 36 38 41 43 40 39 44 46 46 47 48 48 48 47 49 50 50 52 54 55 55 55 56 57 58 57 57 56 55 53 51 51 51 51 52 53 53 53 51 49 48 47 47 48 49 50 49 47 46 46 45 44 42 39 37 37 37 37 36 35 35 33
36 34 32 30 28 27 27 28 28 29 31 31 31 30 29 27 28 29 29 29 29 28 28 32 35 38 40 39 37 38 42 44 44 44 45 47 47 47 48 48 49 52 54 54 54 55 56 56 56 55 55 55 54 53 53 53 52 52 53 53 55 54 51 48 47 47 47 48 49 49 49 48 46 44 45 44 41 39 38 39 39 38 38 38 36
35 33 31 30 29 28 27 28 29 30 31 31 31 31 29 29 28 27 28 29 28 27 26 29 32 35 37 38 38 37 39 41 41 41 43 46 46 46 46 46 46 48 50 50 51 52 53 54 54 54 54 54 53 53 54 54 53 53 53 55 56 54 51 50 49 48 48 48 48 48 49 49 46 44 45 46 44 43 41 41 40 40 41 41 40
33 31 30 30 29 29 28 29 30 31 31 31 32 31 30 30 29 28 28 28 28 27 25 26 29 33 35 37 38 38 39 40 40 39 41 43 45 44 44 45 45 46 47 48 48 48 50 52 52 51 52 53 52 52 54 55 54 53 54 55 55 52 50 50 51 51 50 50 48 47 49 50 48 46 46 46 46 46 45 44 43 41 42 44 42
32 31 29 29 30 30 30 30 31 31 32 31 32 32 32 31 30 29 28 28 28 27 25 24 27 31 34 36 38 39 40 39 39 38 39 41 42 42 42 44 44 45 46 47 48 48 47 48 50 50 50 51 51 51 52 54 54 53 53 53 53 52 50 50 51 52 53 52 50 49 49 50 49 48 47 47 47 48 49 48 45 43 43 44 44
31 30 29 29 30 30 31 31 32 32 32 32 32 32 33 33 32 30 29 28 28 28 26 24 24 28 33 36 38 41 42 39 36 36 37 38 39 39 40 41 42 43 44 45 47 48 47 47 48 49 49 49 50 51 51 51 52 53 53 53 52 52 51 51 51 52 54 54 53 51 49 49 50 49 48 47 48 50 51 49 47 45 45 45 45
31 30 30 30 30 31 32 33 33 33 33 33 32 32 33 33 32 31 29 28 28 28 27 26 24 26 31 35 39 42 42 38 35 35 36 36 36 36 37 38 39 41 42 44 45 46 46 47 48 49 48 48 49 50 50 50 51 52 53 53 53 52 52 52 52 53 54 55 54 54 51 49 49 49 49 49 50 50 51 50 49 48 47 47 46
30 30 30 30 31 32 33 34 34 35 35 34 32 32 32 31 32 31 30 28 28 28 28 27 26 25 28 32 37 42 42 38 35 35 36 35 34 35 36 37 37 38 39 41 43 44 44 45 47 48 49 48 48 47 48 48 49 51 52 52 52 52 52 51 51 51 52 53 54 54 52 50 50 49 50 51 51 50 51 51 50 49 48 48 48
30 31 31 31 32 33 34 35 35 36 35 34 32 31 31 30 30 30 29 28 28 28 28 28 28 27 28 31 35 39 42 40 37 37 37 36 35 35 36 36 37 38 39 40 41 42 43 44 45 47 48 48 47 46 46 46 48 50 52 52 52 52 53 53 51 51 51 52 52 53 52 51 50 50 50 52 51 50 50 50 50 50 50 50 49
30 31 31 32 33 34 35 35 35 35 34 33 32 30 30 30 30 29 28 28 28 28 28 28 28 29 29 31 34 37 40 41 40 39 38 38 37 37 36 36 36 38 38 39 40 41 42 43 44 45 47 47 47 47 46 47 49 51 52 53 53 53 53 53 53 53 52 52 51 51 51 52 50 49 50 52 52 50 50 51 51 50 51 51 50
29 30 31 32 33 33 33 33 33 33 33 32 32 31 31 30 30 29 27 26 27 27 28 28 29 30 31 32 34 36 37 40 42 41 40 40 40 38 37 36 36 37 37 38 39 41 42 43 43 44 45 46 46 47 47 47 48 50 52 53 53 54 53 52 53 54 53 52 52 51 50 50 50 49 48 49 50 50 50 51 50 49 50 50 49
28 29 30 31 32 32 32 31 31 31 31 32 32 32 32 31 30 28 27 25 25 26 27 27 27 30 32 34 36 37 37 38 43 44 42 42 42 41 39 37 36 35 35 36 38 40 42 43 43 43 44 45 45 45 46 46 47 48 50 53 55 55 53 51 53 54 53 51 50 50 49 47 46 48 48 48 49 49 49 49 48 48 50 49 46
27 27 28 29 30 31 31 31 31 30 30 31 31 32 31 30 29 28 27 26 26 26 27 28 28 30 32 35 37 39 39 38 42 46 46 45 44 43 41 39 37 36 36 37 38 40 41 42 43 43 44 45 45 45 45 46 46 45 48 52 56 55 52 51 53 54 53 51 50 49 49 46 44 46 49 50 50 50 50 50 49 49 50 48 44
25 25 26 28 29 30 31 31 30 30 30 30 30 31 31 30 29 29 28 28 28 27 27 27 29 31 32 34 35 38 40 39 40 46 49 47 45 43 42 40 38 38 39 39 40 40 41 42 43 44 44 44 45 44 44 45 46 45 46 50 54 54 51 51 52 52 52 52 51 50 49 48 47 48 48 49 50 51 52 52 52 51 50 47 45
23 24 26 27 28 29 29 30 30 31 31 31 31 31 30 29 29 29 29 29 29 29 27 26 26 29 31 32 32 34 37 37 37 42 47 48 45 44 43 42 41 41 41 41 41 41 42 42 43 44 44 44 44 43 44 45 46 46 46 48 51 52 51 51 53 52 51 51 50 49 48 48 49 49 48 49 50 51 53 54 53 52 51 49 46
22 24 26 26 27 27 28 28 30 31 32 32 32 32 30 29 29 30 31 31 32 32 31 27 25 26 27 27 28 29 30 31 32 35 40 45 45 45 44 43 43 43 43 42 42 43 43 42 41 42 44 45 43 42 43 44 45 46 46 47 49 49 51 54 53 49 47 46 46 47 48 48 48 49 48 47 48 49 51 50 48 48 49 49 47
22 23 24 25 26 26 26 28 29 29 29 30 30 29 29 28 29 29 30 32 33 35 33 28 25 24 22 20 21 23 24 25 27 29 33 40 44 44 43 43 43 43 43 42 42 43 44 42 40 40 42 44 43 41 42 44 45 46 47 47 48 49 51 53 49 43 43 45 45 46 46 44 44 46 46 46 47 48 48 46 45 45 45 46 46
22 22 23 24 24 25 26 28 28 26 26 26 26 26 25 25 25 26 28 29 31 32 30 28 25 20 15 13 15 18 19 20 22 24 28 33 38 41 41 42 43 42 42 40 40 43 45 42 39 39 40 42 41 41 42 43 44 45 46 47 48 48 49 47 43 40 42 44 44 45 44 42 43 45 46 46 46 46 46 45 45 45 44 45 44
21 22 23 23 23 24 26 27 26 24 23 24 24 24 24 24 24 26 29 28 27 27 27 27 23 15 9 8 10 13 15 16 18 20 22 26 31 35 37 38 39 38 37 38 41 44 45 42 39 38 39 40 41 42 42 42 43 45 45 46 46 47 46 44 41 39 38 39 40 40 40 40 41 42 42 43 43 44 45 45 42 40 39 40 40
21 21 22 23 23 24 26 26 25 23 23 24 25 25 25 25 25 26 29 29 26 24 25 24 19 11 5 5 7 9 10 12 13 15 16 19 23 26 28 30 32 33 34 38 42 44 44 42 40 40 41 41 41 41 42 43 43 44 44 44 44 44 43 41 40 37 35 34 34 34 34 35 36 36 36 37 37 38 40 40 40 40 42 42 42
20 20 21 22 23 24 25 24 23 22 23 24 25 26 27 27 27 28 31 32 29 24 21 19 15 9 4 3 4 6 7 9 10 10 11 14 16 18 21 24 27 30 32 36 40 41 39 38 38 40 42 41 39 41 44 43 43 42 41 43 45 43 41 39 37 34 33 32 33 34 34 35 35 34 34 34 34 34 35 35 36 39 40 42 43
20 20 20 21 22 23 23 22 21 21 23 24 25 26 28 29 30 31 33 35 32 25 19 16 13 10 8 6 4 5 5 6 7 8 10 12 14 18 22 24 24 26 28 32 34 33 29 29 33 37 39 40 41 43 43 41 40 39 38 40 42 40 37 34 32 31 32 33 33 34 34 34 34 35 34 33 33 34 33 31 30 31 31 31 33
19 19 19 20 20 21 21 20 20 20 21 23 24 26 28 30 32 33 33 34 33 27 21 16 15 15 12 9 6 4 3 3 6 8 9 11 16 19 20 20 20 21 21 22 21 21 19 20 25 30 34 38 39 37 34 34 35 34 33 34 35 34 32 31 31 32 33 33 32 32 33 33 33 32 31 30 29 29 27 25 25 26 27 26 26
17 17 17 18 18 18 19 19 19 19 20 21 23 25 26 29 31 32 33 33 31 28 23 18 16 15 12 10 9 7 5 3 3 6 10 15 18 16 14 13 15 17 18 17 11 11 14 15 20 26 30 33 32 27 24 23 24 26 28 27 28 29 29 29 30 30 29 29 29 29 27 25 23 21 19 21 23 24 23 22 23 23 23 23 22
16 15 15 15 16 17 18 19 19 19 20 21 23 25 26 27 29 30 31 31 31 29 26 21 17 16 13 11 11 11 9 7 4 4 9 13 13 10 8 8 11 15 16 14 11 4 6 7 12 19 22 24 23 20 17 13 12 17 22 23 23 25 24 23 23 22 21 21 21 20 18 18 18 17 15 16 19 20 20 20 21 20 20 21 21
14 13 13 13 14 16 17 18 19 19 20 21 22 24 25 26 28 29 30 31 31 29 27 24 23 22 20 16 14 12 11 10 8 6 6 6 5 7 7 5 8 13 13 7 3 4 4 1 4 10 11 12 11 10 8 5 4 7 11 13 14 16 15 14 14 15 14 15 16 17 17 16 16 16 17 17 18 19 20 20 19 19 20 22 22
12 11 11 12 13 15 16 18 18 19 20 21 22 23 24 25 27 27 28 29 29 28 26 25 25 27 28 26 22 19 16 16 15 14 12 9 9 11 10 9 8 8 7 2 6 9 9 9 7 6 6 8 10 11 10 8 7 7 7 5 5 6 6 7 7 8 9 11 13 14 14 13 13 16 17 18 19 19 20 20 19 20 22 23 23
11 9 9 10 12 13 15 16 18 19 20 21 22 23 24 25 26 26 26 27 27 27 27 26 25 26 28 29 29 27 24 23 23 20 16 15 14 13 9 5 4 4 3 7 6 8 9 7 5 5 8 11 13 13 12 11 10 8 6 4 2 1 1 2 3 5 7 9 10 12 12 13 15 17 18 18 19 21 21 22 22 23 24 25 26
10 8 8 9 11 12 13 15 16 18 19 20 21 22 23 24 24 25 25 26 27 27 28 28 27 26 26 28 30 30 28 26 25 22 18 17 15 12 9 8 9 8 8 12 12 10 9 11 10 8 10 10 11 11 11 10 9 6 4 3 3 5 6 7 7 8 9 10 12 13 15 16 17 19 20 21 22 24 25 26 26 27 28 29 30
9 7 7 9 10 10 12 13 15 16 18 19 20 21 21 22 22 23 23 24 25 26 26 27 27 26 26 27 29 30 28 27 24 21 18 16 14 11 11 12 14 14 13 12 11 10 8 6 4 5 8 9 10 11 10 9 6 5 5 6 8 9 11 12 13 13 14 16 17 17 18 19 20 21 22 23 25 26 27 28 29 30 31 32 32
9 7 7 8 9 10 10 12 13 14 16 17 18 19 19 20 20 20 21 22 22 23 23 24 24 25 26 28 29 29 27 24 21 19 17 17 15 15 15 15 14 13 13 13 13 12 10 9 8 7 7 8 9 9 8 6 5 5 6 8 9 10 12 14 15 16 17 19 19 20 21 21 22 23 23 24 25 26 27 28 29 30 31 32 32
9 7 7 7 8 8 9 10 11 12 13 15 16 17 17 18 18 18 19 20 20 20 21 21 22 23 24 25 25 24 22 20 20 20 20 20 20 20 19 18 16 16 15 15 15 15 14 13 12 11 11 11 11 10 8 7 6 5 5 6 7 8 10 11 12 14 15 16 17 18 19 19 20 21 21 22 22 23 24 25 25 26 27 28 29
9 7 7 7 7 7 8 9 9 10 11 12 14 15 16 16 16 16 17 17 18 18 19 19 20 21 22 22 22 21 20 20 21 23 23 23 23 23 22 21 21 21 20 19 18 18 17 16 16 15 15 14 13 11 10 9 8 7 7 6 7 7 8 9 10 11 11 12 13 14 15 16 16 17 18 18 19 20 20 21 22 22 23 24 25
9 8 7 7 7 6 6 7 8 8 9 11 12 13 13 14 14 14 15 15 15 15 16 17 17 18 19 20 20 20 20 20 21 22 22 23 23 22 23 23 23 23 23 22 21 20 20 19 19 18 18 17 15 14 13 12 11 10 9 8 8 8 8 8 9 9 10 10 11 11 12 13 14 14 15 16 17 17 18 19 19 20 21 21 22
10 9 8 7 7 7 6 6 7 7 8 9 10 11 12 12 13 13 14 14 14 14 14 15 15 16 17 18 18 19 19 19 20 20 20 21 21 21 21 22 23 22 22 22 22 22 21 21 20 20 20 19 18 17 16 15 14 12 12 11 11 10 10 9 10 10 10 10 11 12 12 13 14 14 15 16 16 17 18 18 19 20 20 21 21
11 10 9 7 7 7 6 6 6 6 7 8 8 10 10 11 12 12 13 13 14 14 14 14 15 15 16 16 17 17 17 17 18 18 18 18 18 19 19 20 20 21 21 20 21 21 21 20 20 19 19 19 18 17 16 15 14 14 13 13 13 12 12 12 12 12 13 13 13 14 14 15 16 16 17 18 19 19 20 20 21 21 22 22 23
12 11 10 9 7 7 7 6 6 6 6 6 7 8 9 10 11 11 12 13 14 14 14 15 15 15 15 15 16 16 16 16 16 17 17 17 17 17 18 18 18 18 18 18 18 18 18 18 18 18 17 17 16 16 15 15 15 14 14 14 14 14 15 15 14 15 15 15 16 16 16 17 18 18 19 19 20 21 21 22 22 23 23 24 24
13 13 12 10 8 8 7 7 6 6 6 5 5 6 7 8 9 10 11 12 13 14 14 15 15 15 15 15 15 15 15 16 16 17 17 17 18 18 18 19 19 18 18 18 17 17 17 17 17 17 16 16 15 15 15 15 15 15 15 15 15 15 15 15 16 16 17 17 18 19 19 20 20 21 21 22 22 23 23 23 23 24 24 24 25
14 14 14 12 10 8 8 7 7 7 6 6 6 6 6 7 8 9 10 11 12 12 13 14 14 15 15 15 15 15 15 15 16 16 17 17 18 18 19 19 19 19 19 19 18 18 18 17 17 16 16 16 16 16 16 16 16 16 16 16 16 16 16 17 17 17 18 19 19 20 20 21 22 22 23 23 24 24 25 25 25 25 25 25 25
15 15 15 14 12 10 9 8 8 7 7 6 6 6 6 7 8 9 9 10 11 11 12 12 13 13 14 14 14 15 15 15 15 16 16 16 16 17 17 18 18 19 19 19 19 18 18 18 17 17 17 17 17 17 17 17 17 17 17 17 17 17 18 18 18 18 19 19 19 20 21 21 22 23 23 24 24 24 25 25 25 25 25 25 25
15 16 17 16 14 13 11 9 8 8 7 7 7 6 6 7 8 9 10 10 10 11 11 12 12 12 13 13 13 14 14 14 14 15 15 15 15 16 16 16 16 16 17 17 18 18 18 18 18 18 18 18 18 18 18 18 18 18 18 18 18 18 19 19 19 19 19 20 20 21 22 22 22 23 23 23 23 23 23 23 23 23 23 23 23
15 17 18 18 17 15 13 12 11 9 8 8 7 7 7 7 8 9 10 10 11 11 11 11 12 12 12 12 13 13 13 13 13 13 14 14 14 14 14 15 15 15 15 16 16 16 16 17 17 18 18 19 19 19 20 20 20 20 20 20 20 20 20 20 21 21 22 22 23 24 24 24 24 23 23 22 22 22 22 21 20 20 20 20 20
15 16 18 19 19 18 16 15 13 12 11 10 9 9 9 9 9 10 10 11 11 12 12 12 12 12 12 12 12 12 12 12 13 13 13 13 13 13 14 14 14 14 15 15 15 16 16 17 17 18 19 19 20 20 21 21 21 21 21 22 22 22 22 23 23 24 25 25 26 26 26 26 26 25 24 22 22 21 21 20 19 19 19 19 19
15 16 17 19 20 20 19 18 16 15 14 13 12 11 11 11 11 11 11 12 12 12 12 12 12 12 12 12 12 12 12 12 12 12 12 12 12 13 13 13 13 14 14 15 15 16 17 17 18 18 19 19 20 20 20 21 22 22 22 23 23 24 25 25 26 26 27 27 27 28 28 27 27 26 24 22 21 21 21 20 20 20 19 19 20
Wind_Direction
301 304 305 304 303 303 303 300 297 294 293 290 287 282 278 274 272 270 269 267 263 258 254 252 250 248 247 246 246 246 246 246 246 246 246 247 247 245 243 243 244 245 245 246 245 243 241 241 243 244 245 248 250 250 251 253 256 258 258 257 256 256 257 258 259 260 261 261 259 254 246 243 243 246 248 250 251 254 255 255 253 251 249 246 244
304 306 308 307 307 307 307 305 302 300 300 298 293 288 283 278 274 270 268 267 264 259 254 251 249 248 246 245 245 246 246 246 246 245 245 246 246 245 245 244 245 246 246 245 244 243 241 241 244 246 247 249 249 249 250 252 255 258 259 260 260 258 257 258 258 259 260 260 261 260 254 247 243 243 246 248 249 252 254 254 254 252 249 246 244
307 310 311 310 309 308 308 307 306 305 306 304 300 294 288 283 277 272 267 265 263 260 255 251 248 247 246 244 244 245 246 246 246 246 246 245 245 245 245 245 245 246 247 246 245 245 244 243 245 247 250 250 249 248 249 251 253 256 258 260 263 261 259 258 258 258 259 260 260 262 260 254 247 243 244 247 248 251 253 254 254 253 250 246 243
311 312 312 312 310 308 307 307 307 307 310 309 305 300 295 289 283 277 270 265 263 260 256 252 249 247 246 244 243 244 245 246 246 247 247 246 246 245 245 246 246 247 247 247 247 247 246 246 247 249 251 251 249 247 248 249 251 254 255 258 262 263 260 258 257 256 257 258 258 260 262 260 254 247 244 245 248 250 253 253 253 253 251 247 244
313 314 314 312 310 307 305 306 307 308 312 312 309 305 302 298 292 285 278 271 266 262 258 253 250 248 247 246 244 243 244 245 246 247 248 248 247 246 246 246 247 248 248 248 248 247 247 248 249 250 252 253 251 248 248 249 251 253 254 255 258 262 261 258 257 256 256 257 256 257 261 261 259 253 247 245 246 248 252 253 253 253 252 249 245
315 316 314 312 309 306 304 305 307 309 312 314 312 307 304 302 299 294 288 281 273 266 261 256 251 248 248 248 246 244 245 246 246 246 248 249 249 248 247 247 248 249 249 248 248 248 249 251 252 252 252 254 253 251 250 250 251 253 254 253 254 258 259 257 257 257 257 256 255 255 257 259 261 258 252 247 245 246 249 251 253 254 253 250 246
317 317 315 311 307 304 303 304 307 309 310 313 313 309 306 305 304 302 298 291 282 272 264 259 253 247 245 247 247 245 245 248 248 247 248 250 250 250 249 249 249 250 250 249 249 250 251 253 254 254 253 253 253 253 252 251 252 253 254 252 251 254 257 255 255 257 257 256 254 254 254 256 259 260 256 251 246 244 246 249 252 253 253 250 245
318 317 314 310 306 304 303 304 306 307 308 310 312 312 311 309 308 307 305 301 293 281 269 261 256 249 243 243 245 245 244 247 250 249 247 249 251 252 251 251 250 251 252 251 251 252 253 255 255 255 254 254 253 253 253 253 252 254 254 251 247 250 254 254 255 256 257 257 256 254 253 254 256 258 258 255 249 245 245 246 249 250 251 249 244
319 317 313 309 306 304 302 303 304 306 307 308 310 312 313 312 311 309 308 307 302 292 277 265 258 250 244 240 241 242 242 245 249 250 248 248 249 251 252 252 252 252 252 253 252 252 254 255 256 255 255 255 255 253 253 254 254 254 254 248 244 247 252 253 254 255 256 257 257 255 254 253 253 255 257 256 252 248 246 245 245 247 248 247 245
318 316 312 309 307 305 304 304 305 307 308 308 308 310 312 312 311 309 308 307 305 298 284 270 261 253 245 240 238 238 241 243 247 250 249 248 249 250 251 252 253 253 253 254 254 253 253 255 256 255 255 255 255 254 253 255 255 255 253 246 240 244 250 252 253 254 256 257 258 257 256 254 252 253 255 256 255 251 248 246 244 244 245 246 245
317 315 312 310 309 309 308 307 307 307 308 308 308 309 310 309 309 309 308 306 305 301 289 273 263 256 248 241 236 235 239 243 245 247 248 248 248 249 250 251 252 253 253 253 254 254 254 254 255 255 254 255 255 254 254 255 256 255 253 247 242 243 249 251 251 252 254 257 258 258 257 255 253 253 254 255 255 253 250 248 246 244 244 246 245
317 316 314 313 312 311 310 308 307 307 307 307 308 309 309 308 307 306 307 306 304 302 295 280 265 256 250 243 236 233 237 242 244 245 246 246 247 249 251 251 251 252 253 252 253 254 254 254 254 254 254 254 254 254 254 255 255 254 253 250 247 247 250 251 251 251 252 255 257 258 257 256 254 253 254 254 254 254 252 250 249 247 245 246 246
318 318 317 315 313 312 310 308 307 307 307 307 307 308 308 307 306 303 303 303 302 300 297 288 274 260 252 244 236 233 236 242 244 244 244 245 246 249 251 252 251 251 252 253 253 253 254 254 254 253 253 253 253 253 254 255 254 254 253 251 250 251 252 251 250 251 252 253 254 256 256 256 255 254 255 255 255 255 254 253 252 251 249 248 247
320 320 318 316 314 312 310 309 309 309 309 308 307 307 306 306 305 303 300 299 299 299 297 292 282 268 257 248 239 234 235 240 243 243 243 243 244 246 249 251 251 251 251 252 252 253 253 254 254 253 252 252 251 251 252 253 253 253 253 252 252 252 252 252 250 250 251 252 252 253 255 256 256 255 256 257 257 256 255 254 253 252 251 249 247
322 320 318 316 315 313 312 312 312 312 311 310 308 307 306 305 305 303 300 297 296 296 295 292 285 274 263 253 244 238 235 238 243 243 242 241 242 244 247 249 250 251 251 251 251 252 252 253 253 253 252 252 252 251 251 251 253 254 254 253 252 251 251 253 252 251 251 252 253 253 254 255 256 255 255 256 257 257 255 254 253 253 253 251 248
322 320 319 317 316 314 313 314 314 313 311 311 311 309 307 306 305 303 300 297 293 292 291 289 286 279 269 259 251 243 237 238 242 242 239 239 241 243 246 249 250 251 252 251 251 251 251 251 252 252 251 251 252 253 253 251 251 252 253 253 253 251 251 253 253 253 254 254 254 253 253 253 254 254 254 255 256 257 257 255 253 253 253 253 252
322 321 320 318 317 316 315 315 315 314 313 313 314 314 312 310 308 306 302 296 292 289 287 285 283 279 273 265 257 249 240 237 240 240 238 238 241 243 246 249 251 252 253 253 253 252 251 250 251 252 251 250 251 253 253 251 249 249 251 252 253 254 254 253 253 253 255 255 254 253 252 251 251 251 251 252 254 255 256 256 255 253 253 254 255
323 323 321 319 318 317 317 318 317 317 317 317 318 319 319 317 314 312 307 299 293 289 286 284 281 278 275 269 263 256 244 236 238 240 237 237 241 244 246 249 251 253 253 255 255 255 253 251 250 250 250 249 250 252 253 253 252 251 250 251 253 255 255 254 253 253 255 255 254 252 251 250 248 247 248 251 252 253 254 255 256 256 255 255 256
325 324 322 320 319 319 320 321 322 321 320 321 322 323 324 323 320 318 314 307 298 291 286 284 283 280 277 272 266 261 251 237 233 236 237 237 240 244 247 250 252 255 257 258 258 257 256 254 251 249 248 248 248 251 253 255 256 254 251 250 251 254 256 257 256 255 254 253 253 252 252 251 248 245 247 250 252 252 251 252 255 256 256 256 257
326 325 322 320 320 323 325 326 325 325 325 326 327 328 329 328 324 320 317 312 306 298 290 284 283 282 280 276 269 263 257 244 233 232 235 237 239 244 248 251 254 257 261 263 262 260 258 256 254 250 247 247 248 250 253 254 257 257 254 251 250 252 255 256 256 256 253 251 252 252 252 253 251 248 248 250 251 252 252 252 254 255 255 255 256
327 325 322 322 324 328 330 330 329 330 332 333 333 333 333 332 329 324 320 316 312 307 300 291 285 282 280 279 272 262 258 252 240 233 233 235 238 243 248 252 255 259 262 265 266 266 263 259 256 252 248 246 247 249 251 252 254 255 254 251 251 252 253 254 254 254 253 251 252 253 254 254 252 251 251 251 252 254 254 254 254 254 253 254 254
327 325 323 325 329 333 333 333 334 336 337 338 339 339 338 335 332 329 326 322 318 315 311 304 295 287 282 280 274 263 257 255 249 239 234 233 237 242 246 251 255 259 263 266 268 271 270 266 260 255 249 246 245 247 248 249 251 252 251 251 250 250 250 250 251 252 253 253 255 255 256 256 253 251 252 252 252 254 255 254 253 252 251 251 251
325 324 325 329 334 336 336 338 340 341 341 343 344 344 342 337 333 331 329 327 326 324 322 318 310 297 285 278 273 266 260 257 255 248 239 234 235 241 245 250 254 259 264 267 269 272 273 270 265 258 251 246 245 244 245 246 247 247 248 249 249 248 248 248 252 254 253 253 256 256 257 257 253 250 251 252 253 253 253 252 251 249 249 249 250
324 325 329 333 337 339 339 342 343 344 345 346 346 345 343 337 333 333 333 331 330 329 328 327 321 306 288 273 268 267 265 262 259 255 246 238 236 240 245 250 255 260 265 268 270 272 274 273 268 260 250 244 243 242 242 244 245 246 248 249 248 246 245 248 253 256 252 251 254 255 256 257 254 251 252 253 253 253 254 254 253 252 251 249 250
327 330 333 336 339 342 343 343 344 345 347 349 347 345 344 343 342 343 343 340 335 332 330 330 327 313 287 271 270 271 271 268 262 259 253 243 239 241 246 251 257 262 266 268 269 272 274 272 265 256 248 242 241 241 241 242 245 246 248 250 249 245 244 247 253 256 254 253 253 254 255 256 255 253 254 255 254 254 254 254 255 255 253 249 249
331 335 336 338 342 345 345 344 345 348 352 354 352 348 347 347 349 353 355 350 343 337 335 335 334 323 291 274 279 278 276 272 266 261 255 248 244 245 248 254 260 264 266 268 269 270 272 268 259 250 243 239 238 240 242 243 244 245 245 245 246 246 245 247 251 254 256 258 258 259 259 259 258 258 258 259 258 258 258 256 254 254 254 252 250
335 337 338 341 345 347 346 345 347 351 357 359 357 355 353 351 351 356 1 2 358 352 348 345 342 332 304 284 288 286 280 272 265 262 259 254 251 252 255 259 263 266 267 268 267 267 266 262 254 245 240 238 238 239 241 242 242 243 244 244 244 245 246 247 248 251 255 259 261 262 262 262 262 263 264 264 263 263 264 262 258 256 255 254 252
335 339 342 344 348 350 349 348 350 356 1 0 358 360 3 3 3 5 8 11 11 9 4 359 351 341 332 319 303 294 282 271 267 266 263 258 257 261 265 268 270 271 271 271 270 267 264 259 251 244 240 239 239 241 242 242 241 242 244 243 241 241 242 244 248 251 255 259 262 263 264 264 264 264 264 265 265 266 265 265 263 261 261 259 256
336 342 345 347 350 352 353 353 356 1 2 359 358 3 8 11 14 16 16 16 16 17 18 17 14 17 25 22 348 309 293 284 272 258 251 255 266 275 277 276 278 279 280 278 272 265 258 252 248 246 244 242 242 242 239 235 233 235 237 238 239 240 241 243 249 254 256 259 262 262 262 262 262 263 265 265 266 265 262 261 262 262 260 259 257
337 343 347 349 353 357 359 1 5 6 3 0 2 8 13 16 18 20 22 21 19 18 19 26 40 47 41 26 8 346 324 293 261 252 258 273 282 280 272 271 280 290 297 296 277 258 255 252 245 244 246 245 245 243 234 227 228 229 229 232 237 241 243 244 249 254 255 256 258 260 262 263 263 264 264 263 262 262 260 257 258 258 257 258 258
338 343 347 350 357 3 6 11 14 12 9 9 11 13 17 20 21 22 24 24 24 24 21 22 39 49 35 12 5 9 17 17 277 268 278 281 279 275 267 276 299 312 325 339 325 263 255 256 245 240 242 240 236 230 223 223 226 226 226 230 236 240 244 246 250 253 254 257 259 261 262 261 258 256 255 254 256 261 264 265 264 264 265 269 269
337 342 345 350 359 8 13 17 19 17 15 18 20 20 21 24 24 25 26 26 28 31 31 31 40 49 45 26 13 13 25 39 33 312 287 277 275 286 290 293 310 316 322 347 5 326 262 248 229 221 217 215 212 206 204 212 220 221 226 233 235 235 239 243 248 252 254 256 258 254 247 242 243 248 254 257 259 262 266 268 269 271 271 271 268
334 340 344 349 359 9 15 18 19 18 18 20 22 22 25 27 27 27 28 27 27 31 35 39 45 54 60 57 39 28 32 41 43 25 351 325 327 347 350 348 342 329 317 309 294 282 306 332 209 204 195 192 191 186 190 214 231 215 215 220 221 223 227 235 244 250 252 252 253 249 244 246 255 263 267 267 267 267 267 267 269 269 267 265 262
329 336 342 347 356 6 13 16 17 18 19 20 20 21 24 28 29 29 30 30 29 29 33 38 43 49 55 59 57 55 53 48 44 42 35 27 22 20 30 55 55 25 14 75 157 159 135 118 138 169 168 156 148 138 140 152 157 155 158 165 185 207 218 226 234 242 246 248 250 251 252 257 265 266 264 264 265 267 268 268 268 267 266 267 270
323 330 337 342 351 2 10 14 16 18 20 20 19 19 23 25 27 28 31 32 32 31 32 36 40 44 48 53 55 56 54 50 46 42 38 34 29 19 13 30 78 89 28 3 35 86 86 58 50 83 106 124 129 123 117 115 113 110 106 88 60 15 296 265 250 248 251 252 255 258 262 266 267 267 267 268 269 271 272 272 272 271 271 272 273
315 321 329 335 344 358 8 11 14 17 20 20 19 20 23 23 24 25 28 29 30 30 31 33 37 40 44 48 50 50 49 48 47 42 38 37 33 16 355 358 21 29 360 346 3 23 4 338 342 16 40 58 72 72 69 65 57 49 43 9 324 309 309 307 297 288 281 276 273 272 271 270 271 273 273 274 275 275 275 275 275 275 274 274 273
306 310 320 328 338 353 4 9 12 15 17 20 20 21 22 23 23 24 26 27 28 28 29 31 35 39 43 46 48 46 44 44 44 42 41 43 39 26 21 25 28 26 19 15 21 24 9 357 10 16 13 23 34 34 31 25 6 337 309 292 285 283 286 288 289 289 288 286 284 283 280 279 277 277 276 276 276 276 276 276 276 276 276 276 276
296 298 310 321 331 347 358 5 11 13 14 18 21 22 24 25 25 25 27 28 29 29 28 29 32 37 43 46 46 44 42 41 43 45 46 48 47 41 38 37 35 34 36 39 42 37 29 32 42 41 35 36 35 31 29 19 356 321 298 287 280 277 277 278 279 280 280 280 281 281 280 281 280 280 279 279 278 278 277 277 277 277 277 277 278
286 287 299 311 324 341 353 359 7 11 13 16 20 21 23 26 27 27 29 30 30 31 31 30 31 35 41 45 46 44 42 41 45 49 49 49 50 49 48 47 47 46 46 47 49 49 44 40 40 42 41 39 37 36 32 22 6 345 322 306 298 295 291 287 285 284 282 282 283 282 282 283 283 282 283 282 282 281 281 280 280 281 281 281 281
276 276 288 303 314 332 346 352 359 6 11 16 18 19 21 24 26 28 31 31 31 32 33 33 33 35 39 43 46 45 42 39 42 44 46 46 47 49 50 52 53 53 52 52 53 53 52 50 49 48 47 45 42 39 34 29 23 13 0 347 333 323 315 309 305 302 298 295 294 292 292 291 290 289 289 288 288 287 287 286 286 285 285 285 285
269 266 277 294 305 318 336 344 350 360 9 14 15 15 17 20 22 24 28 30 31 32 33 34 34 36 38 41 43 44 42 40 41 41 42 44 45 46 47 50 51 52 52 53 55 57 56 55 53 53 53 52 50 47 45 42 36 28 22 16 6 355 345 337 330 325 321 317 313 310 308 307 305 303 301 299 298 297 296 295 294 293 292 292 291
261 258 264 281 294 306 321 334 342 353 4 10 10 9 11 13 16 19 21 24 26 28 30 32 34 35 36 38 39 40 40 40 41 42 42 43 44 44 45 47 48 48 48 48 49 50 51 49 48 47 47 46 45 44 43 40 35 32 29 24 18 13 7 0 353 347 341 337 333 328 325 322 320 318 315 313 311 308 306 305 304 302 301 300 298
253 249 253 266 282 294 306 319 331 342 355 3 6 5 4 5 9 12 14 16 18 20 23 26 29 32 34 35 36 36 36 36 38 40 41 42 43 44 45 46 46 46 45 44 43 44 44 43 43 41 39 38 36 35 33 31 28 26 22 19 15 12 7 2 358 354 349 346 341 337 334 331 327 325 322 319 317 315 314 313 311 309 308 306 305
247 243 245 254 267 279 290 302 313 325 341 354 1 2 1 0 4 7 8 9 10 11 14 17 20 24 27 29 31 32 31 31 32 34 35 37 39 40 42 44 45 46 44 43 42 41 39 38 37 36 34 31 29 26 24 22 19 17 14 11 8 5 1 358 354 350 347 343 340 336 334 332 329 327 324 321 319 317 315 313 312 310 308 307 305
244 239 239 244 253 264 276 286 295 306 319 334 347 356 358 358 0 4 5 5 5 5 6 7 10 14 17 20 22 24 24 24 25 25 26 28 28 29 31 34 35 37 37 37 37 37 35 33 31 29 27 25 22 19 17 15 12 11 8 5 1 358 354 350 347 344 342 339 337 334 332 330 328 326 324 321 319 317 315 314 311 309 307 305 303
243 237 235 236 242 252 263 273 282 290 300 311 324 339 349 352 354 357 0 2 3 2 2 2 3 5 8 9 12 14 15 16 18 18 19 20 20 20 21 23 24 25 26 27 28 29 28 26 25 22 19 18 16 14 12 9 6 4 1 358 355 352 349 346 344 341 338 336 333 331 329 326 324 323 321 320 318 317 315 313 311 309 307 305 304
244 237 233 233 236 242 250 260 270 279 287 297 308 321 334 342 344 346 349 353 356 357 358 360 359 359 1 2 3 5 7 8 10 11 13 14 15 14 15 16 16 16 17 18 19 19 19 19 18 16 14 13 12 10 8 6 3 360 357 354 351 349 347 344 342 339 336 333 330 327 325 323 322 321 320 318 317 315 314 312 311 310 308 307 306
247 240 235 233 234 237 241 248 257 265 274 284 295 308 320 330 336 337 339 342 345 346 349 352 353 353 354 355 356 358 359 0 2 4 6 7 9 10 10 11 11 11 11 11 11 11 10 10 10 9 9 8 7 5 3 2 0 358 356 354 351 349 346 343 340 338 335 333 331 329 327 326 325 324 323 321 319 317 316 315 313 313 312 311 310
250 244 239 236 234 235 236 240 246 253 262 270 281 294 306 316 325 329 330 332 335 336 338 341 343 344 346 347 348 350 351 352 354 356 357 359 1 2 3 4 5 5 6 6 5 4 4 3 3 3 3 2 1 0 360 359 358 356 354 352 349 347 345 343 341 340 339 337 336 334 332 331 330 328 328 326 324 322 321 321 321 320 319 317 316
253 247 242 239 236 236 237 239 242 246 253 261 269 280 292 302 310 317 320 323 324 326 327 330 332 334 337 338 339 341 342 344 346 348 349 351 352 353 354 355 356 357 357 357 357 357 357 357 357 358 357 357 357 357 356 354 353 352 350 349 347 346 345 344 344 343 341 340 338 336 334 333 333 332 333 332 331 329 329 329 328 327 326 324 322
256 252 246 241 238 237 238 240 242 245 250 256 262 269 279 290 297 303 308 313 315 316 318 320 322 325 328 330 332 333 335 337 339 341 342 344 345 347 349 351 352 353 353 353 352 353 353 353 353 353 353 353 352 352 350 350 349 347 346 346 345 345 345 345 344 342 341 339 337 336 335 334 333 334 334 335 334 334 333 334 334 334 333 331 329
Height
3060 3058 3056 3053 3051 3049 3048 3046 3044 3042 3040 3039 3037 3036 3035 3034 3034 3033 3033 3033 3033 3034 3035 3036 3038 3039 3041 3043 3046 3048 3050 3052 3055 3057 3059 3061 3062 3064 3067 3069 3069 3071 3073 3073 3075 3077 3079 3081 3083 3086 3089 3090 3091 3094 3096 3097 3098 3099 3100 3100 3101 3103 3103 3102 3102 3102 3105 3108 3110 3113 3116 3116 3116 3117 3117 3118 3118 3118 3118 3118 3118 3118 3118 3119 3119
3057 3054 3052 3049 3047 3045 3043 3042 3040 3038 3036 3034 3032 3031 3029 3028 3028 3027 3028 3028 3027 3028 3028 3029 3030 3032 3034 3036 3039 3041 3043 3046 3049 3051 3053 3055 3057 3059 3061 3063 3064 3066 3068 3068 3070 3072 3073 3076 3078 3081 3084 3084 3086 3089 3091 3093 3093 3094 3095 3096 3097 3098 3098 3098 3099 3098 3099 3103 3105 3107 3110 3112 3113 3114 3114 3114 3115 3114 3114 3114 3114 3114 3115 3115 3115
3053 3050 3048 3045 3043 3040 3038 3037 3035 3033 3031 3029 3027 3026 3024 3023 3022 3021 3021 3021 3021 3021 3021 3022 3023 3025 3027 3029 3032 3035 3037 3040 3042 3045 3047 3049 3051 3053 3055 3057 3059 3061 3063 3064 3065 3067 3068 3070 3072 3075 3078 3078 3080 3083 3085 3087 3088 3088 3090 3091 3092 3093 3094 3094 3095 3094 3094 3097 3100 3101 3103 3106 3108 3110 3110 3110 3110 3110 3110 3110 3110 3110 3111 3111 3111
3049 3046 3043 3041 3039 3036 3034 3032 3031 3029 3027 3024 3022 3021 3019 3018 3016 3015 3014 3014 3014 3014 3015 3016 3017 3019 3020 3022 3025 3028 3031 3033 3036 3038 3041 3043 3045 3047 3050 3051 3053 3055 3057 3059 3061 3062 3064 3065 3068 3070 3072 3073 3074 3077 3079 3081 3082 3083 3084 3086 3087 3088 3090 3090 3090 3090 3089 3091 3095 3096 3097 3100 3103 3105 3107 3106 3106 3106 3106 3106 3106 3106 3107 3107 3108
3045 3042 3039 3037 3035 3032 3030 3028 3026 3024 3023 3021 3018 3016 3014 3013 3011 3010 3009 3008 3008 3008 3008 3009 3011 3013 3015 3017 3019 3022 3025 3027 3029 3031 3034 3037 3039 3041 3043 3045 3047 3049 3052 3053 3055 3057 3058 3060 3063 3065 3066 3067 3068 3070 3073 3075 3076 3078 3079 3080 3082 3083 3084 3085 3086 3086 3085 3086 3090 3092 3092 3094 3096 3099 3102 3102 3102 3102 3102 3102 3102 3102 3103 3104 3104
3041 3038 3036 3033 3031 3028 3026 3024 3022 3020 3018 3017 3014 3012 3010 3008 3006 3005 3004 3002 3001 3001 3001 3002 3004 3006 3009 3011 3013 3016 3019 3021 3023 3025 3028 3031 3033 3035 3037 3039 3041 3043 3045 3048 3049 3051 3052 3054 3057 3060 3061 3061 3063 3065 3067 3069 3071 3072 3073 3075 3077 3078 3079 3080 3081 3081 3080 3081 3084 3086 3087 3088 3089 3092 3096 3098 3098 3098 3097 3097 3098 3099 3099 3100 3100
3037 3035 3032 3029 3027 3024 3022 3020 3018 3016 3014 3012 3011 3008 3006 3004 3002 3000 2999 2997 2996 2996 2995 2996 2997 3000 3002 3006 3008 3011 3014 3016 3018 3020 3023 3025 3027 3029 3031 3033 3035 3037 3039 3042 3044 3045 3047 3048 3050 3053 3054 3056 3058 3060 3062 3063 3065 3066 3067 3069 3071 3072 3072 3074 3075 3075 3075 3075 3077 3080 3082 3083 3083 3086 3089 3092 3093 3093 3093 3093 3094 3095 3095 3095 3096
3034 3031 3028 3026 3023 3021 3019 3016 3014 3012 3010 3008 3007 3005 3002 3000 2998 2996 2994 2992 2991 2990 2990 2990 2991 2993 2996 3000 3002 3005 3008 3011 3013 3015 3017 3020 3021 3023 3025 3027 3029 3031 3032 3035 3038 3040 3041 3042 3044 3046 3048 3050 3052 3054 3056 3058 3059 3059 3061 3063 3065 3066 3066 3067 3069 3070 3070 3070 3071 3074 3076 3077 3078 3080 3082 3085 3087 3088 3088 3088 3089 3090 3091 3091 3092
3030 3027 3024 3022 3019 3017 3015 3013 3011 3009 3007 3005 3003 3001 2999 2996 2994 2992 2990 2988 2987 2985 2985 2985 2986 2988 2990 2994 2996 2999 3002 3005 3007 3009 3011 3013 3015 3017 3019 3021 3023 3025 3026 3028 3031 3033 3034 3036 3037 3040 3041 3043 3046 3048 3050 3051 3052 3053 3054 3056 3057 3059 3060 3061 3063 3064 3065 3065 3065 3068 3070 3071 3074 3076 3076 3079 3082 3083 3083 3083 3084 3085 3085 3086 3087
3027 3024 3021 3018 3016 3014 3012 3010 3008 3006 3004 3002 3000 2998 2996 2993 2991 2989 2987 2985 2984 2982 2981 2981 2982 2983 2985 2988 2991 2994 2997 2999 3002 3004 3005 3007 3009 3011 3013 3015 3017 3019 3020 3022 3024 3026 3028 3029 3031 3034 3036 3037 3039 3041 3043 3044 3045 3046 3047 3047 3049 3051 3053 3055 3056 3058 3059 3059 3060 3062 3063 3065 3069 3071 3071 3073 3076 3077 3077 3077 3078 3080 3079 3080 3082
3023 3020 3017 3015 3012 3011 3009 3007 3004 3002 3000 2998 2996 2994 2992 2990 2988 2986 2984 2982 2981 2979 2978 2977 2977 2978 2980 2982 2985 2988 2991 2994 2996 2998 3000 3002 3003 3005 3007 3009 3011 3012 3014 3015 3017 3019 3021 3023 3025 3028 3030 3031 3033 3035 3037 3038 3039 3040 3040 3041 3042 3044 3047 3048 3050 3051 3052 3053 3055 3057 3057 3059 3064 3066 3066 3067 3069 3070 3071 3071 3072 3073 3073 3074 3077
3020 3017 3014 3012 3009 3007 3005 3003 3001 2999 2997 2995 2993 2990 2988 2986 2984 2982 2981 2979 2977 2976 2975 2974 2973 2974 2975 2976 2979 2982 2985 2988 2991 2993 2995 2996 2998 2999 3001 3003 3005 3006 3008 3009 3011 3013 3015 3017 3018 3021 3023 3025 3027 3029 3031 3032 3033 3034 3035 3036 3037 3038 3040 3042 3044 3045 3046 3047 3049 3051 3051 3054 3058 3060 3060 3062 3063 3063 3063 3064 3066 3068 3068 3068 3071
3016 3014 3011 3008 3006 3004 3002 2999 2997 2995 2993 2991 2989 2987 2985 2983 2981 2979 2977 2976 2974 2973 2972 2970 2970 2969 2970 2971 2974 2976 2980 2983 2986 2988 2989 2992 2993 2994 2996 2997 2998 3000 3002 3004 3005 3007 3009 3011 3012 3014 3016 3018 3020 3022 3024 3026 3027 3028 3030 3031 3032 3033 3034 3036 3038 3039 3040 3041 3042 3044 3046 3048 3051 3054 3056 3056 3056 3056 3056 3058 3061 3062 3062 3063 3065
3013 3010 3008 3005 3003 3000 2998 2996 2993 2991 2990 2988 2986 2984 2982 2979 2977 2975 2974 2972 2971 2969 2968 2967 2966 2966 2966 2967 2968 2971 2975 2979 2981 2983 2985 2987 2988 2989 2991 2992 2992 2994 2996 2998 2999 3001 3003 3004 3005 3007 3010 3012 3013 3015 3017 3019 3020 3022 3023 3024 3025 3027 3028 3029 3031 3033 3034 3035 3036 3038 3042 3043 3045 3048 3050 3049 3049 3050 3051 3052 3054 3055 3055 3056 3058
3010 3007 3004 3002 2999 2997 2994 2992 2990 2988 2986 2984 2982 2980 2978 2976 2973 2971 2970 2969 2967 2966 2964 2963 2963 2962 2962 2963 2964 2967 2971 2974 2976 2978 2980 2982 2983 2984 2986 2986 2987 2988 2989 2991 2993 2995 2996 2998 2999 3001 3003 3005 3007 3009 3011 3013 3014 3015 3016 3017 3019 3021 3022 3023 3026 3027 3028 3029 3030 3032 3036 3038 3039 3041 3044 3043 3042 3044 3045 3046 3047 3047 3047 3048 3050
3006 3004 3001 2999 2997 2994 2992 2989 2987 2984 2982 2980 2979 2977 2974 2972 2970 2968 2966 2965 2963 2962 2961 2959 2959 2959 2959 2958 2959 2962 2966 2969 2970 2972 2975 2977 2978 2979 2980 2981 2982 2983 2984 2985 2986 2988 2990 2992 2993 2995 2997 2999 3001 3003 3005 3007 3008 3008 3009 3011 3013 3015 3016 3018 3020 3021 3022 3023 3024 3026 3029 3032 3033 3035 3037 3036 3036 3038 3040 3039 3039 3039 3039 3041 3043
3004 3001 2999 2996 2994 2991 2989 2986 2983 2981 2979 2977 2975 2973 2970 2968 2966 2964 2962 2961 2959 2958 2957 2956 2955 2955 2955 2955 2954 2956 2960 2964 2965 2967 2970 2971 2972 2974 2975 2975 2976 2977 2978 2980 2981 2982 2984 2985 2987 2989 2990 2993 2996 2998 3000 3000 3001 3002 3003 3005 3006 3008 3009 3012 3015 3015 3016 3017 3017 3020 3023 3025 3027 3028 3029 3030 3030 3032 3033 3032 3032 3034 3034 3034 3035
3001 2999 2996 2994 2991 2989 2986 2983 2981 2978 2976 2973 2971 2969 2967 2964 2962 2960 2958 2957 2956 2954 2952 2952 2951 2950 2950 2950 2950 2950 2954 2959 2961 2962 2964 2966 2966 2968 2969 2969 2970 2972 2973 2975 2975 2976 2978 2979 2981 2982 2984 2987 2990 2992 2994 2995 2995 2996 2997 2999 3000 3001 3003 3007 3009 3009 3010 3011 3011 3013 3016 3018 3021 3022 3022 3023 3025 3026 3025 3025 3027 3028 3027 3027 3029
2999 2997 2994 2991 2989 2986 2984 2981 2979 2976 2973 2971 2968 2966 2963 2961 2959 2957 2955 2953 2952 2950 2948 2947 2947 2946 2945 2945 2945 2944 2947 2952 2955 2956 2958 2960 2960 2961 2963 2964 2965 2967 2969 2969 2970 2971 2972 2973 2975 2976 2978 2980 2983 2986 2988 2989 2989 2990 2992 2993 2993 2994 2998 3002 3003 3003 3004 3005 3005 3006 3009 3011 3014 3015 3016 3017 3018 3018 3018 3019 3021 3021 3020 3021 3024
2997 2994 2992 2989 2986 2984 2981 2979 2977 2974 2971 2969 2966 2963 2960 2958 2955 2953 2951 2949 2948 2946 2944 2942 2942 2941 2940 2938 2938 2938 2940 2944 2948 2949 2950 2953 2954 2956 2957 2959 2961 2962 2964 2964 2965 2965 2966 2967 2969 2971 2972 2974 2977 2980 2982 2983 2984 2985 2986 2986 2986 2989 2994 2996 2996 2996 2998 2998 2999 3001 3002 3004 3006 3008 3009 3010 3010 3011 3012 3013 3014 3014 3014 3015 3017
2995 2992 2990 2988 2985 2982 2979 2977 2974 2972 2969 2966 2963 2960 2957 2954 2952 2950 2948 2945 2943 2942 2940 2938 2936 2935 2934 2932 2932 2932 2933 2936 2940 2942 2943 2946 2949 2951 2953 2955 2956 2957 2958 2958 2959 2959 2960 2961 2962 2964 2966 2968 2970 2973 2975 2977 2978 2979 2979 2980 2981 2985 2988 2989 2989 2991 2992 2993 2994 2995 2996 2997 2999 3000 3002 3003 3004 3004 3005 3006 3007 3008 3008 3009 3010
2993 2991 2988 2986 2984 2981 2978 2975 2972 2970 2967 2964 2961 2958 2955 2952 2949 2947 2944 2941 2939 2937 2935 2933 2931 2929 2928 2927 2926 2926 2927 2929 2933 2936 2938 2942 2945 2947 2949 2951 2952 2952 2952 2953 2954 2954 2955 2956 2956 2958 2960 2961 2963 2966 2968 2970 2971 2972 2973 2974 2976 2979 2981 2982 2982 2984 2987 2988 2989 2990 2990 2991 2993 2994 2995 2996 2998 2999 2998 2998 2999 3000 3001 3002 3004
2991 2989 2987 2985 2983 2980 2977 2974 2971 2968 2965 2962 2959 2956 2953 2950 2947 2944 2941 2938 2935 2932 2930 2928 2926 2924 2923 2921 2921 2922 2923 2925 2928 2931 2934 2937 2940 2942 2944 2946 2947 2947 2947 2948 2949 2949 2949 2950 2951 2952 2953 2955 2957 2959 2960 2962 2964 2965 2967 2969 2970 2973 2975 2975 2976 2978 2982 2983 2984 2984 2985 2986 2987 2988 2989 2990 2992 2992 2991 2991 2992 2993 2994 2997 2999
2990 2988 2986 2984 2982 2979 2976 2973 2970 2967 2964 2961 2958 2955 2952 2949 2946 2942 2938 2934 2931 2928 2925 2923 2921 2919 2918 2918 2918 2919 2921 2922 2924 2926 2929 2932 2935 2937 2939 2941 2942 2943 2943 2943 2944 2943 2943 2944 2945 2946 2947 2949 2950 2952 2954 2955 2957 2958 2961 2963 2964 2967 2969 2969 2970 2973 2976 2977 2978 2979 2980 2981 2981 2982 2984 2984 2985 2985 2984 2985 2987 2988 2990 2992 2993
2988 2986 2984 2982 2981 2978 2975 2972 2970 2967 2964 2961 2958 2955 2952 2949 2945 2941 2937 2932 2928 2925 2922 2919 2917 2915 2914 2915 2916 2917 2918 2920 2922 2923 2925 2928 2931 2933 2935 2937 2938 2939 2939 2939 2938 2938 2937 2938 2939 2940 2941 2943 2945 2946 2948 2950 2951 2953 2955 2957 2958 2960 2962 2964 2966 2968 2969 2970 2972 2974 2974 2975 2976 2976 2978 2978 2978 2978 2979 2980 2982 2983 2984 2986 2987
2987 2985 2983 2981 2979 2977 2974 2971 2969 2966 2963 2960 2957 2954 2951 2948 2944 2940 2935 2931 2926 2922 2919 2916 2914 2912 2913 2914 2915 2916 2917 2918 2920 2921 2923 2925 2927 2930 2932 2934 2935 2935 2934 2934 2933 2932 2932 2933 2933 2934 2935 2937 2939 2941 2943 2944 2946 2947 2948 2951 2952 2954 2957 2960 2962 2964 2965 2966 2967 2969 2970 2970 2971 2971 2972 2973 2973 2973 2974 2974 2976 2978 2980 2981 2982
2986 2984 2982 2980 2978 2975 2973 2970 2967 2965 2962 2960 2957 2954 2950 2946 2943 2939 2935 2930 2925 2921 2917 2915 2913 2912 2912 2914 2915 2915 2916 2917 2919 2920 2922 2923 2926 2928 2929 2931 2931 2930 2929 2928 2927 2926 2926 2926 2927 2928 2930 2931 2934 2936 2937 2939 2940 2942 2943 2946 2948 2950 2953 2956 2958 2959 2961 2962 2963 2964 2965 2966 2966 2967 2967 2968 2968 2968 2969 2970 2971 2973 2974 2975 2976
2985 2983 2981 2979 2977 2974 2972 2969 2966 2964 2961 2959 2956 2953 2949 2946 2942 2938 2933 2928 2924 2920 2918 2916 2914 2913 2913 2913 2914 2915 2916 2917 2918 2919 2921 2922 2924 2925 2926 2927 2926 2925 2925 2923 2921 2920 2920 2920 2921 2923 2925 2927 2929 2931 2932 2933 2935 2937 2939 2941 2943 2946 2949 2951 2953 2955 2957 2958 2959 2960 2961 2962 2962 2963 2963 2964 2964 2964 2965 2965 2966 2967 2968 2968 2968
2984 2982 2980 2978 2976 2974 2971 2968 2966 2963 2961 2959 2956 2952 2949 2945 2941 2937 2933 2928 2924 2921 2920 2918 2916 2915 2914 2913 2914 2914 2915 2916 2918 2919 2920 2920 2921 2922 2923 2923 2923 2922 2920 2917 2915 2914 2914 2914 2916 2918 2921 2924 2926 2927 2927 2928 2929 2932 2935 2936 2938 2941 2944 2947 2949 2952 2954 2955 2955 2956 2957 2958 2958 2959 2959 2960 2960 2960 2961 2961 2962 2962 2962 2962 2962
2983 2981 2979 2978 2976 2974 2971 2968 2966 2963 2961 2959 2956 2952 2949 2945 2942 2938 2934 2930 2926 2923 2922 2920 2918 2916 2915 2914 2914 2915 2916 2916 2917 2918 2918 2919 2921 2922 2922 2921 2920 2919 2916 2912 2908 2907 2908 2909 2911 2914 2917 2920 2923 2924 2924 2924 2924 2927 2929 2932 2934 2937 2940 2943 2946 2948 2949 2950 2951 2951 2952 2953 2954 2955 2955 2956 2956 2956 2956 2957 2958 2958 2958 2958 2958
2983 2981 2979 2977 2976 2974 2971 2969 2966 2964 2962 2959 2956 2953 2950 2946 2943 2940 2937 2933 2930 2926 2924 2922 2920 2918 2917 2916 2916 2916 2916 2916 2916 2917 2918 2919 2921 2921 2920 2919 2917 2915 2912 2908 2904 2904 2905 2906 2907 2909 2912 2916 2919 2921 2921 2921 2921 2922 2925 2928 2931 2934 2937 2940 2942 2943 2944 2945 2946 2947 2948 2949 2950 2951 2951 2951 2952 2953 2953 2953 2954 2954 2954 2954 2955
2982 2980 2979 2977 2976 2974 2972 2969 2967 2965 2963 2960 2958 2955 2951 2948 2945 2943 2940 2937 2933 2929 2927 2925 2923 2920 2919 2918 2918 2917 2917 2916 2916 2917 2918 2919 2919 2918 2917 2916 2914 2913 2910 2907 2904 2904 2906 2907 2907 2908 2910 2912 2915 2916 2917 2918 2919 2921 2923 2925 2929 2932 2934 2936 2938 2940 2941 2942 2943 2944 2945 2946 2947 2947 2947 2948 2949 2950 2950 2951 2951 2951 2952 2952 2952
2981 2980 2978 2977 2976 2974 2972 2969 2967 2966 2964 2962 2959 2957 2954 2950 2947 2944 2942 2939 2936 2933 2930 2928 2926 2923 2921 2920 2920 2919 2918 2918 2917 2918 2919 2918 2917 2916 2915 2914 2913 2912 2909 2907 2905 2906 2908 2909 2909 2910 2911 2911 2911 2912 2913 2916 2919 2921 2922 2925 2927 2929 2931 2933 2935 2937 2938 2939 2940 2941 2942 2943 2945 2945 2946 2947 2947 2947 2948 2949 2949 2949 2950 2949 2949
2980 2979 2978 2977 2975 2974 2972 2970 2968 2966 2964 2962 2960 2958 2955 2952 2949 2947 2944 2942 2939 2937 2934 2932 2929 2926 2924 2922 2922 2921 2920 2919 2919 2919 2919 2919 2918 2917 2915 2914 2913 2912 2911 2909 2908 2908 2909 2910 2910 2910 2910 2910 2910 2910 2912 2915 2919 2921 2923 2924 2926 2928 2930 2932 2934 2935 2937 2938 2939 2939 2940 2942 2943 2944 2944 2945 2945 2946 2946 2946 2947 2947 2947 2947 2946
2979 2978 2977 2976 2975 2974 2972 2970 2968 2966 2965 2963 2961 2959 2956 2953 2951 2949 2946 2944 2942 2940 2938 2935 2932 2930 2927 2925 2924 2923 2922 2921 2921 2920 2920 2920 2919 2918 2917 2916 2915 2913 2912 2911 2910 2910 2910 2910 2911 2912 2911 2910 2910 2911 2913 2915 2918 2920 2922 2924 2926 2928 2929 2931 2933 2934 2935 2936 2937 2938 2939 2940 2941 2942 2942 2942 2943 2943 2943 2943 2943 2944 2944 2944 2944
2978 2978 2977 2976 2975 2974 2972 2970 2969 2967 2965 2963 2962 2960 2957 2955 2953 2950 2948 2946 2944 2942 2940 2937 2935 2932 2931 2929 2926 2925 2925 2924 2923 2923 2922 2921 2921 2921 2920 2918 2916 2914 2913 2912 2911 2911 2911 2911 2911 2913 2914 2913 2912 2913 2914 2916 2918 2920 2923 2925 2926 2928 2929 2930 2931 2933 2934 2935 2935 2936 2937 2938 2938 2939 2939 2939 2940 2940 2940 2940 2940 2940 2940 2940 2940
2977 2977 2976 2975 2974 2973 2972 2971 2969 2967 2966 2964 2962 2961 2959 2957 2954 2952 2950 2948 2946 2943 2941 2940 2938 2936 2934 2931 2929 2928 2927 2927 2926 2926 2926 2924 2923 2922 2921 2918 2916 2915 2915 2914 2913 2913 2913 2912 2912 2912 2913 2914 2914 2914 2915 2917 2919 2922 2924 2925 2927 2928 2928 2929 2930 2931 2932 2932 2933 2933 2934 2934 2935 2935 2935 2935 2936 2936 2936 2935 2935 2935 2935 2935 2935
2976 2976 2975 2975 2974 2973 2972 2970 2969 2968 2966 2964 2963 2962 2960 2958 2956 2954 2952 2950 2948 2946 2944 2943 2941 2940 2937 2934 2931 2930 2930 2930 2931 2930 2929 2927 2925 2923 2921 2920 2918 2917 2917 2916 2915 2914 2914 2914 2914 2913 2913 2914 2915 2916 2917 2918 2920 2922 2923 2924 2926 2927 2927 2928 2929 2929 2930 2930 2930 2930 2931 2931 2931 2931 2931 2931 2931 2931 2931 2931 2931 2931 2930 2930 2930
2975 2975 2974 2974 2973 2972 2971 2970 2969 2968 2966 2965 2964 2962 2961 2960 2958 2956 2954 2952 2950 2949 2947 2945 2944 2942 2940 2938 2936 2934 2935 2935 2934 2933 2931 2929 2927 2925 2924 2923 2921 2919 2918 2918 2917 2916 2916 2916 2916 2915 2915 2915 2915 2916 2918 2919 2920 2922 2923 2923 2924 2924 2925 2926 2926 2927 2927 2927 2927 2927 2928 2928 2928 2928 2928 2928 2927 2927 2927 2927 2927 2926 2926 2926 2926
2974 2973 2973 2973 2972 2972 2971 2970 2969 2968 2966 2965 2964 2963 2962 2961 2959 2958 2956 2954 2953 2951 2949 2948 2946 2944 2942 2941 2940 2938 2938 2937 2935 2933 2932 2930 2929 2928 2927 2925 2923 2922 2921 2920 2919 2919 2919 2918 2918 2918 2918 2918 2918 2918 2919 2920 2921 2921 2922 2922 2922 2923 2923 2923 2924 2924 2925 2925 2925 2925 2925 2925 2925 2925 2925 2925 2925 2925 2924 2924 2923 2923 2922 2922 2922
2972 2972 2972 2972 2971 2971 2970 2969 2968 2967 2966 2965 2964 2963 2962 2961 2960 2959 2958 2956 2955 2953 2952 2950 2948 2946 2945 2943 2942 2941 2940 2938 2937 2935 2934 2933 2931 2930 2929 2927 2926 2924 2923 2922 2922 2921 2921 2921 2921 2921 2920 2920 2921 2921 2921 2921 2921 2921 2921 2922 2922 2922 2922 2923 2923 2923 2923 2923 2923 2923 2923 2923 2923 2923 2923 2923 2922 2922 2921 2921 2920 2920 2919 2918 2918
2971 2971 2971 2971 2970 2970 2969 2968 2968 2967 2966 2965 2964 2963 2962 2961 2960 2959 2958 2957 2956 2955 2953 2952 2950 2948 2947 2945 2944 2943 2942 2941 2939 2938 2936 2935 2934 2933 2931 2930 2928 2927 2926 2925 2924 2924 2923 2923 2922 2922 2922 2922 2922 2922 2922 2922 2922 2922 2923 2923 2923 2923 2923 2923 2923 2923 2923 2923 2922 2922 2922 2922 2921 2921 2920 2920 2919 2919 2918 2917 2917 2916 2915 2915 2914
2969 2969 2969 2969 2969 2969 2968 2968 2967 2966 2966 2965 2964 2963 2962 2961 2960 2959 2958 2957 2956 2955 2954 2953 2951 2950 2949 2947 2946 2944 2943 2942 2941 2940 2939 2938 2937 2935 2934 2933 2932 2930 2929 2928 2927 2926 2925 2925 2925 2924 2924 2924 2924 2924 2924 2924 2924 2924 2924 2924 2924 2924 2924 2923 2923 2923 2922 2922 2922 2921 2921 2920 2920 2919 2918 2917 2916 2915 2915 2914 2913 2912 2911 2911 2910
2967 2967 2967 2967 2967 2967 2967 2967 2966 2966 2965 2964 2963 2963 2962 2961 2960 2959 2958 2957 2956 2955 2954 2953 2952 2951 2950 2948 2947 2946 2945 2943 2942 2941 2940 2939 2938 2937 2936 2935 2934 2933 2932 2931 2930 2929 2928 2928 2927 2927 2926 2926 2926 2926 2925 2925 2925 2925 2925 2924 2924 2924 2923 2923 2922 2922 2921 2921 2920 2920 2919 2918 2918 2917 2916 2915 2914 2913 2912 2911 2910 2909 2908 2907 2907
2965 2965 2965 2966 2966 2966 2966 2965 2965 2965 2964 2963 2963 2962 2962 2961 2960 2959 2958 2957 2956 2955 2953 2952 2951 2951 2950 2949 2948 2947 2946 2944 2943 2942 2940 2939 2938 2937 2936 2935 2934 2934 2933 2932 2932 2931 2930 2929 2929 2928 2928 2928 2927 2927 2926 2926 2926 2925 2925 2924 2924 2923 2923 2922 2922 2921 2920 2919 2919 2918 2917 2916 2915 2914 2913 2912 2911 2910 2909 2908 2907 2906 2905 2905 2904
2964 2964 2964 2964 2964 2964 2964 2964 2964 2964 2963 2962 2962 2961 2961 2960 2959 2959 2958 2957 2956 2955 2954 2953 2952 2950 2950 2949 2948 2947 2946 2945 2944 2942 2941 2940 2938 2937 2936 2934 2934 2933 2932 2932 2931 2931 2931 2930 2930 2930 2929 2929 2928 2927 2927 2926 2925 2925 2924 2924 2923 2923 2922 2922 2921 2920 2919 2918 2917 2916 2915 2914 2913 2912 2911 2910 2908 2907 2906 2905 2904 2903 2902 2901 2900
2962 2962 2962 2962 2962 2962 2963 2963 2963 2963 2962 2962 2961 2961 2960 2959 2959 2958 2958 2957 2956 2956 2955 2954 2953 2951 2950 2949 2948 2947 2946 2945 2944 2943 2942 2941 2940 2938 2937 2936 2935 2933 2933 2932 2931 2931 2930 2930 2930 2930 2929 2929 2928 2928 2927 2926 2926 2925 2925 2924 2923 2923 2922 2921 2920 2919 2918 2917 2916 2915 2914 2913 2911 2910 2909 2908 2906 2905 2904 2902 2901 2900 2899 2898 2897
2960 2960 2960 2960 2960 2961 2961 2961 2961 2961 2961 2961 2960 2960 2959 2959 2958 2957 2957 2956 2956 2955 2954 2954 2953 2952 2951 2950 2949 2948 2947 2946 2945 2944 2943 2942 2941 2940 2939 2938 2937 2936 2934 2933 2932 2932 2931 2930 2930 2929 2929 2928 2928 2927 2927 2927 2926 2925 2925 2924 2923 2922 2921 2920 2919 2918 2917 2916 2914 2913 2912 2911 2909 2908 2907 2905 2904 2902 2901 2900 2898 2897 2896 2895 2894
2958 2958 2958 2958 2959 2959 2959 2959 2959 2959 2959 2959 2959 2959 2958 2958 2957 2957 2956 2955 2955 2954 2954 2953 2952 2952 2951 2950 2949 2948 2947 2946 2945 2944 2943 2942 2942 2941 2940 2939 2938 2937 2936 2935 2934 2934 2933 2932 2931 2930 2929 2928 2928 2927 2926 2926 2925 2924 2923 2923 2922 2921 2919 2918 2917 2916 2914 2913 2912 2910 2909 2908 2906 2905 2904 2902 2901 2899 2898 2897 2896 2894 2893 2892 2891
2955 2955 2956 2956 2956 2957 2957 2957 2957 2957 2957 2957 2957 2957 2957 2956 2956 2956 2955 2954 2954 2953 2953 2952 2951 2951 2950 2949 2948 2948 2947 2946 2945 2944 2943 2942 2942 2941 2940 2939 2938 2937 2936 2936 2935 2934 2933 2932 2931 2930 2929 2928 2927 2926 2925 2924 2924 2923 2922 2921 2919 2918 2917 2916 2914 2913 2912 2910 2909 2908 2906 2905 2903 2902 2901 2899 2898 2896 2895 2894 2893 2892 2890 2889 2888
2953 2953 2953 2953 2954 2954 2955 2955 2955 2955 2955 2955 2955 2955 2955 2955 2955 2954 2954 2953 2953 2952 2952 2951 2950 2950 2949 2949 2948 2947 2946 2945 2944 2944 2943 2942 2941 2941 2940 2939 2938 2937 2936 2935 2934 2934 2933 2932 2931 2930 2929 2928 2927 2926 2925 2924 2923 2921 2920 2919 2917 2916 2915 2913 2912 2911 2909 2908 2907 2905 2903 2902 2900 2899 2898 2896 2895 2894 2892 2891 2890 2889 2888 2886 2885